Regional Weather Roundup
Issued by NWS

Home | Current Version | Previous Version | Graphics & Text | Print | Product List | Glossary On
Versions: 1 2 3 4 5 6 7 8 9 10 11 12 13 14 15 16 17 18 19 20 21 22 23 24 25 26 27 28 29 30 31 32 33 34 35 36 37 38 39 40 41 42 43 44 45 46 47 48 49 50
351
ASUS44 KMEG 300710
RWRTN
TENNESSEE HOURLY STATE WEATHER ROUNDUP
NATIONAL WEATHER SERVICE MEMPHIS TN
200 AM CDT TUE MAY 30 2017

TNZ002-004-019-021-049-052-054-088>092-300800-
WEST TENNESSEE

CITY           SKY/WX    TMP DP  RH WIND       PRES   REMARKS
MEMPHIS INTL   CLEAR     69  67  93 CALM      30.04S
NWS MEMPHIS      N/A     67 N/A N/A MISG        N/A
JACKSON        CLEAR     68  67  96 SW6       30.04S
DYERSBURG        N/A    N/A N/A N/A MISG        N/A
SOMERVILLE     CLEAR     68  68 100 CALM      30.03S
COVINGTON      CLEAR     66  64  94 SW3       30.03S
UNION CITY     CLEAR     70  61  73 SW5       30.01S
BOLIVAR        FOG       66  64  94 CALM      30.04S VSB 0
PARIS          CLOUDY    66  61  82 CALM      30.02R
HUNTINGDON     PTCLDY    66  63  88 CALM      30.02S
LEXINGTON      FOG       64  64 100 CALM      30.04S VSB 3/4
SELMER         CLEAR     68  66  94 SW3       30.04F
SAVANNAH       CLEAR     66  66 100 CALM      30.04F
$$

TNZ008-025-027-028-033-062-065-066-300800-
NORTH MIDDLE TENNESSEE

CITY           SKY/WX    TMP DP  RH WIND       PRES   REMARKS
NASHVILLE      CLOUDY    67  65  93 S3        30.05R
PORTLAND       PTCLDY    68  66  94 N10       30.05R
CLARKSVILLE    PTCLDY    70  61  73 N6        30.05R
SMYRNA         PTCLDY    64  64 100 S3        30.06S FOG
COOKEVILLE     CLOUDY    66  64  94 S6        30.05F
GALLATIN       CLEAR     66  64  94 CALM      30.07S
CROSSVILLE     FOG       61  60  97 CALM      30.09F VSB 1/2
$$

TNZ061-075-076-078-094-096-097-300800-
SOUTH MIDDLE TENNESSEE

CITY           SKY/WX    TMP DP  RH WIND       PRES   REMARKS
FAYETTEVILLE   CLEAR     63  63 100 CALM      30.07S
TULLAHOMA      MOCLDY    61  59  94 CALM      30.08F VSB 1/2
WINCHESTER     CLEAR     63  63 100 S3          N/A
MCMINNVILLE    CLOUDY    64  64 100 CALM      30.07S
COLUMBIA       CLOUDY    64  64 100 CALM      30.04S
SHELBYVILLE    CLEAR     61  61 100 CALM      30.06F FOG
$$

TNZ017-018-042-046-047-300800-
NORTHEAST TENNESSEE

CITY           SKY/WX    TMP DP  RH WIND       PRES   REMARKS
TRI CITIES     CLOUDY    63  62  97 CALM      30.07S FOG
ELIZABETHTON   CLOUDY    64  61  88 CALM      30.07S
$$

TNZ012-013-036-069-073-074-300800-
CENTRAL EAST TENNESSEE

CITY           SKY/WX    TMP DP  RH WIND       PRES   REMARKS
KNOXVILLE      CLOUDY    67  64  90 SW8       30.05F
OAK RIDGE      CLOUDY    68  65  90 VRB3      30.07S
DOWNTOWN KNOXV CLEAR     66  66 100 SW5       30.05F
GATLINBURG     CLOUDY    63  63 100 CALM      30.06S
MORRISTOWN     MOCLDY    68  66  94 W5        30.05F
JACKSBORO      FOG       63  63 100 CALM      30.08S VSB 0
$$

TNZ083-085-099-300800-
SOUTHEAST TENNESSEE

CITY           SKY/WX    TMP DP  RH WIND       PRES   REMARKS
CHATTANOOGA    CLOUDY    65  63  93 CALM      30.07F
$$

SKY/WX REPORTED AS FAIR MEANS FEW OR NO CLOUDS BELOW
12 THOUSAND FEET.





USA.gov is the U.S. government's official web portal to all federal, state and local government web resources and services.